CW2551 Weather Reports


Display with metric or nautical units.
time (UTC)temp
F
wind
direction
speed
MPH
gust
MPH
rain 1hr
in
rain 24hr
in
rain mn
in
humidity
%
barometer
mb
20260504100604 56 121 0.0 0.0 0.00 0.04 0.00 89 1010.0
20260504100106 56 121 0.0 0.0 0.00 0.04 0.00 88 1010.0
20260504090104 57 121 0.0 0.0 0.00 0.04 0.00 88 1009.8
20260504081605 58 121 0.0 0.0 0.00 0.04 0.00 87 1010.0
20260504081104 58 121 0.0 0.0 0.00 0.04 0.00 87 1010.0
20260504081024 58 121 0.0 0.0 0.00 0.04 0.00 87 1010.0
20260504080605 58 121 0.0 0.0 0.00 0.04 0.00 87 1010.0
20260504080105 59 121 0.0 0.0 0.00 0.04 0.00 87 1009.9
20260504070107 60 121 0.0 0.0 0.00 0.04 0.00 86 1009.9
20260504050605 61 133 0.0 0.0 0.00 0.04 0.04 84 1009.6
20260504050105 61 133 0.0 0.0 0.00 0.04 0.04 84 1009.4
20260504050023 61 133 0.0 0.0 0.00 0.04 0.04 84 1009.4
20260504045605 61 133 0.0 0.0 0.00 0.04 0.04 84 1009.4
20260504045106 61 133 0.0 0.0 0.00 0.04 0.04 83 1009.5
20260504045022 61 133 0.0 0.0 0.00 0.04 0.04 83 1009.5
20260504044605 61 133 0.0 0.0 0.00 0.04 0.04 83 1009.5
20260504044106 61 133 0.0 0.0 0.00 0.04 0.04 83 1009.4
20260504044022 61 133 0.0 0.0 0.00 0.04 0.04 82 1009.3
20260504043604 61 133 0.0 0.0 0.00 0.04 0.04 82 1009.3
20260504043106 61 133 0.0 0.0 0.00 0.04 0.04 82 1009.3
20260504043022 62 133 0.0 0.0 0.00 0.04 0.04 82 1009.3
20260504042605 62 133 0.0 0.0 0.00 0.04 0.04 82 1009.3
20260504042104 62 133 0.0 0.0 0.00 0.04 0.04 82 1009.3
20260504042023 62 133 0.0 0.0 0.00 0.04 0.04 82 1009.2
20260504041606 62 133 0.0 0.0 0.00 0.04 0.04 82 1009.2
20260504041105 62 133 0.0 0.0 0.00 0.04 0.04 82 1009.1
20260504041024 62 133 0.0 0.0 0.00 0.04 0.04 83 1009.1
20260504040605 62 133 0.0 0.0 0.00 0.04 0.04 83 1009.1
20260504040105 62 133 0.0 0.0 0.00 0.04 0.04 83 1009.1
20260504040023 62 133 0.0 0.0 0.00 0.04 0.04 82 1008.9
20260504035604 62 133 0.0 0.0 0.00 0.04 0.04 82 1008.9
20260504035105 62 134 0.0 0.0 0.00 0.04 0.04 82 1008.8
20260504035024 62 96 0.0 0.0 0.00 0.04 0.04 82 1008.6
20260504034605 62 96 0.0 0.0 0.00 0.04 0.04 82 1008.6
20260504034106 63 89 0.0 0.0 0.00 0.04 0.04 83 1008.5
20260504033604 63 89 0.0 0.0 0.00 0.04 0.04 83 1008.5
20260504033105 63 89 0.0 0.0 0.00 0.04 0.04 82 1008.5
20260504032607 63 89 0.0 0.0 0.00 0.04 0.04 82 1008.4
20260504032105 63 89 0.0 0.0 0.00 0.04 0.04 82 1008.3
20260504032022 63 89 0.0 0.0 0.00 0.04 0.04 82 1008.3
20260504031606 63 89 0.0 0.0 0.00 0.04 0.04 82 1008.3
20260504031105 63 88 0.0 0.0 0.00 0.04 0.04 82 1008.4
20260504031022 64 89 0.0 0.0 0.00 0.04 0.04 82 1008.4
20260504030604 64 89 0.0 0.0 0.00 0.04 0.04 82 1008.4
20260504030024 64 88 0.0 0.0 0.00 0.04 0.04 82 1008.4
20260504025605 64 88 0.0 0.0 0.00 0.04 0.04 82 1008.4
20260504025107 64 88 0.0 0.0 0.00 0.04 0.04 81 1008.5
20260504025022 64 88 0.0 0.0 0.00 0.04 0.04 81 1008.5
20260504024605 64 88 0.0 0.0 0.00 0.04 0.04 81 1008.5
20260504023605 64 92 0.0 2.0 0.00 0.04 0.04 81 1008.5
20260504023105 64 111 0.0 0.0 0.00 0.04 0.04 81 1008.4
20260504023024 64 129 0.0 0.0 0.00 0.04 0.04 81 1008.4
20260504022104 64 130 0.0 0.0 0.00 0.04 0.04 80 1008.2
20260504022022 64 130 0.0 0.0 0.00 0.04 0.04 81 1008.3
20260504021607 64 130 0.0 0.0 0.00 0.04 0.04 81 1008.3
20260504021022 64 130 0.0 0.0 0.00 0.04 0.04 81 1008.7
20260504020605 64 130 0.0 0.0 0.00 0.04 0.04 81 1008.7
20260504020024 64 130 0.0 0.0 0.00 0.04 0.04 81 1008.7
20260504015605 64 130 0.0 0.0 0.00 0.04 0.04 81 1008.7
20260504015104 64 142 0.0 0.0 0.00 0.04 0.04 81 1008.7
20260504014105 64 142 0.0 0.0 0.00 0.04 0.04 79 1008.3
20260504014022 64 139 0.0 0.0 0.00 0.04 0.04 79 1008.2
20260504013605 64 139 0.0 0.0 0.00 0.04 0.04 79 1008.2
20260504013105 64 133 0.0 0.0 0.00 0.04 0.04 79 1008.2
20260504013024 64 94 0.0 0.0 0.00 0.04 0.04 79 1008.4
20260504012605 64 94 0.0 0.0 0.00 0.04 0.04 79 1008.4
20260504012106 64 81 1.0 3.0 0.00 0.04 0.04 79 1008.3
20260504011605 64 159 0.0 2.0 0.00 0.04 0.04 79 1008.2
20260504011106 64 123 0.0 0.0 0.00 0.04 0.04 79 1008.2
20260504011022 64 123 0.0 3.0 0.00 0.04 0.04 79 1008.3
20260504010605 64 123 0.0 3.0 0.00 0.04 0.04 79 1008.3
20260504010105 64 93 1.0 8.0 0.00 0.04 0.04 78 1008.2
20260504005605 64 214 0.0 0.0 0.00 0.04 0.04 78 1007.9
20260504005106 64 231 0.0 0.0 0.04 0.04 0.04 78 1008.0
20260504005021 64 236 0.0 0.0 0.04 0.04 0.04 78 1008.0
20260504004605 64 236 0.0 0.0 0.04 0.04 0.04 78 1008.0
20260504004105 64 243 0.0 0.0 0.04 0.04 0.04 77 1008.0
20260504004023 64 244 0.0 0.0 0.04 0.04 0.04 75 1008.2
20260504003604 64 244 0.0 0.0 0.04 0.04 0.04 75 1008.2
20260504003106 64 265 0.0 0.0 0.04 0.04 0.04 75 1008.0
20260504003023 64 314 0.0 0.0 0.04 0.04 0.04 76 1008.0
20260504002604 64 314 0.0 0.0 0.04 0.04 0.04 76 1008.0
20260504002105 64 338 0.0 5.0 0.04 0.04 0.04 76 1008.3
20260504002023 64 22 1.0 5.0 0.04 0.04 0.04 77 1008.5
20260504001604 64 22 1.0 5.0 0.04 0.04 0.04 77 1008.5
20260504001106 64 66 1.0 8.0 0.04 0.04 0.04 77 1008.6
20260504001022 64 13 3.0 9.0 0.04 0.04 0.04 76 1008.2
20260504000604 64 13 3.0 9.0 0.04 0.04 0.04 76 1008.2
20260504000105 64 221 0.0 0.0 0.04 0.04 0.04 74 1007.5
20260504000024 64 219 0.0 1.0 0.04 0.04 0.04 73 1007.4
20260503235105 64 214 1.0 8.0 0.00 0.00 0.00 73 1007.5
20260503235022 65 220 0.0 12.0 0.00 0.00 0.00 71 1007.5
20260503234604 65 220 0.0 12.0 0.00 0.00 0.00 71 1007.5
20260503234106 66 164 7.0 18.0 0.00 0.00 0.00 70 1007.7
20260503234023 67 158 7.0 18.0 0.00 0.00 0.00 68 1007.8
20260503233604 67 158 7.0 18.0 0.00 0.00 0.00 68 1007.8
20260503233023 72 137 9.0 17.0 0.00 0.00 0.00 58 1008.2
20260503232605 72 137 9.0 17.0 0.00 0.00 0.00 58 1008.2
20260503232106 75 140 8.0 16.0 0.00 0.00 0.00 50 1007.9
20260503232022 78 131 9.0 17.0 0.00 0.00 0.00 43 1007.7
20260503231605 78 131 9.0 17.0 0.00 0.00 0.00 43 1007.7
20260503231106 79 149 6.0 13.0 0.00 0.00 0.00 38 1007.2
20260503231024 81 161 6.0 12.0 0.00 0.00 0.00 35 1006.9
20260503230104 81 168 1.0 6.0 0.00 0.00 0.00 35 1006.6
20260503230024 82 213 0.0 1.0 0.00 0.00 0.00 39 1006.2
20260503225605 82 213 0.0 1.0 0.00 0.00 0.00 39 1006.2
20260503225105 82 213 0.0 3.0 0.00 0.00 0.00 35 1006.0
20260503224605 83 206 2.0 6.0 0.00 0.00 0.00 33 1005.8
20260503223605 84 86 6.0 15.0 0.00 0.00 0.00 28 1006.1
20260503222604 85 118 3.0 3.0 0.00 0.00 0.00 32 1006.5
20260503222105 84 93 2.0 6.0 0.00 0.00 0.00 33 1006.4
20260503222022 83 265 0.0 0.0 0.00 0.00 0.00 37 1006.4
20260503221605 83 265 0.0 0.0 0.00 0.00 0.00 37 1006.4
20260503221106 82 265 0.0 1.0 0.00 0.00 0.00 40 1006.3
20260503221022 81 265 0.0 0.0 0.00 0.00 0.00 39 1006.4
20260503220605 81 265 0.0 0.0 0.00 0.00 0.00 39 1006.4
20260503215104 81 265 0.0 2.0 0.00 0.00 0.00 46 1006.5
20260503215023 80 267 0.0 3.0 0.00 0.00 0.00 41 1006.6
20260503214605 80 267 0.0 3.0 0.00 0.00 0.00 41 1006.6
20260503214022 79 267 0.0 3.0 0.00 0.00 0.00 44 1006.9
20260503213604 79 267 0.0 3.0 0.00 0.00 0.00 44 1006.9
20260503213104 79 267 1.0 3.0 0.00 0.00 0.00 42 1007.1
20260503213025 80 270 0.0 0.0 0.00 0.00 0.00 44 1007.2
20260503212605 80 270 0.0 0.0 0.00 0.00 0.00 44 1007.2
20260503212023 80 270 0.0 0.0 0.00 0.00 0.00 44 1007.4
20260503211605 80 270 0.0 0.0 0.00 0.00 0.00 44 1007.4
20260503211106 81 270 2.0 3.0 0.00 0.00 0.00 39 1007.5
20260503211022 81 226 0.0 0.0 0.00 0.00 0.00 39 1007.5
20260503210604 81 226 0.0 0.0 0.00 0.00 0.00 39 1007.5
20260503210107 80 226 0.0 1.0 0.00 0.00 0.00 41 1007.6
20260503210024 79 226 0.0 3.0 0.00 0.00 0.00 42 1007.7
20260503205605 79 226 0.0 3.0 0.00 0.00 0.00 42 1007.7
20260503205105 79 227 1.0 3.0 0.00 0.00 0.00 44 1007.7
20260503205024 79 227 0.0 6.0 0.00 0.00 0.00 45 1007.6
20260503204605 79 227 0.0 6.0 0.00 0.00 0.00 45 1007.6
20260503204105 78 14 1.0 3.0 0.00 0.00 0.00 47 1007.7
20260503204022 77 34 0.0 3.0 0.00 0.00 0.00 46 1007.7
20260503203605 77 34 0.0 3.0 0.00 0.00 0.00 46 1007.7
20260503203108 77 35 0.0 3.0 0.00 0.00 0.00 46 1007.9
20260503203023 77 36 0.0 0.0 0.00 0.00 0.00 49 1008.1
20260503202605 77 36 0.0 0.0 0.00 0.00 0.00 49 1008.1
20260503202106 77 36 0.0 0.0 0.00 0.00 0.00 51 1008.1
20260503202021 77 36 0.0 0.0 0.00 0.00 0.00 49 1008.2
20260503201604 77 36 0.0 0.0 0.00 0.00 0.00 49 1008.2
20260503201106 77 36 0.0 0.0 0.00 0.00 0.00 45 1008.2
20260503201022 76 36 0.0 0.0 0.00 0.00 0.00 43 1008.2
20260503200105 76 36 0.0 1.0 0.00 0.00 0.00 48 1008.1
20260503200026 76 36 0.0 0.0 0.00 0.00 0.00 53 1008.2
20260503195605 76 36 0.0 0.0 0.00 0.00 0.00 53 1008.2
20260503195105 76 36 0.0 0.0 0.00 0.00 0.00 51 1008.3
20260503194605 76 36 0.0 0.0 0.00 0.00 0.00 46 1008.5
20260503194104 76 36 0.0 0.0 0.00 0.00 0.00 45 1008.4
20260503194023 76 36 0.0 0.0 0.00 0.00 0.00 54 1008.5
20260503193605 76 36 0.0 0.0 0.00 0.00 0.00 54 1008.5
20260503193105 75 36 0.0 0.0 0.00 0.00 0.00 46 1008.5
20260503193025 75 36 0.0 0.0 0.00 0.00 0.00 47 1008.6
20260503192605 75 36 0.0 0.0 0.00 0.00 0.00 47 1008.6
20260503191605 75 37 0.0 0.0 0.00 0.00 0.00 44 1008.8
20260503191104 76 36 2.0 3.0 0.00 0.00 0.00 45 1008.8
20260503191022 76 44 0.0 3.0 0.00 0.00 0.00 46 1009.0
20260503185604 77 46 0.0 3.0 0.00 0.00 0.00 42 1009.1
20260503185023 77 47 0.0 3.0 0.00 0.00 0.00 46 1009.1
20260503184605 77 47 0.0 3.0 0.00 0.00 0.00 46 1009.1
20260503184105 77 49 0.0 3.0 0.00 0.00 0.00 47 1009.1
20260503184021 77 49 1.0 3.0 0.00 0.00 0.00 49 1009.3
20260503183605 77 49 1.0 3.0 0.00 0.00 0.00 49 1009.3
20260503183104 77 46 0.0 0.0 0.00 0.00 0.00 46 1009.2
20260503183023 77 46 0.0 0.0 0.00 0.00 0.00 48 1009.3
20260503182605 77 46 0.0 0.0 0.00 0.00 0.00 48 1009.3
20260503182104 77 46 0.0 0.0 0.00 0.00 0.00 44 1009.3
20260503182022 77 46 1.0 3.0 0.00 0.00 0.00 43 1009.4
20260503181604 77 46 1.0 3.0 0.00 0.00 0.00 43 1009.4
20260503181104 77 50 1.0 3.0 0.00 0.00 0.00 45 1009.4
20260503180605 76 50 0.0 1.0 0.00 0.00 0.00 46 1009.4
20260503180024 75 171 0.0 3.0 0.00 0.00 0.00 49 1009.6
20260503175605 75 171 0.0 3.0 0.00 0.00 0.00 49 1009.6
20260503175105 75 172 0.0 2.0 0.00 0.00 0.00 51 1009.5
20260503175022 74 173 0.0 1.0 0.00 0.00 0.00 49 1009.6
20260503174605 74 173 0.0 1.0 0.00 0.00 0.00 49 1009.6
20260503174021 73 173 0.0 3.0 0.00 0.00 0.00 50 1009.7
20260503173606 73 173 0.0 3.0 0.00 0.00 0.00 50 1009.7
20260503173105 73 169 0.0 5.0 0.00 0.00 0.00 50 1009.8
20260503173023 72 172 1.0 3.0 0.00 0.00 0.00 52 1009.9
20260503172604 72 172 1.0 3.0 0.00 0.00 0.00 52 1009.9
20260503172104 72 153 1.0 3.0 0.00 0.00 0.00 51 1009.9
20260503172022 71 153 2.0 5.0 0.00 0.00 0.00 52 1010.1
20260503171606 71 153 2.0 5.0 0.00 0.00 0.00 52 1010.1
20260503171105 70 167 0.0 1.0 0.00 0.00 0.00 54 1010.0
20260503171021 70 167 0.0 0.0 0.00 0.00 0.00 58 1010.0
20260503170604 70 167 0.0 0.0 0.00 0.00 0.00 58 1010.0
20260503160106 63 246 0.0 3.0 0.00 0.00 0.00 74 1010.6
20260503131104 52 242 0.0 0.0 0.00 0.00 0.00 88 1010.0
20260503131024 52 242 0.0 0.0 0.00 0.00 0.00 88 1009.8
20260503130605 52 242 0.0 0.0 0.00 0.00 0.00 88 1009.8
20260503130105 52 242 0.0 0.0 0.00 0.00 0.00 88 1009.7
20260503120106 52 242 0.0 0.0 0.00 0.00 0.00 86 1009.8
20260503110605 53 242 0.0 0.0 0.00 0.00 0.00 85 1009.9
20260503110105 53 242 0.0 0.0 0.00 0.00 0.00 85 1009.9